AAL312 TNCC-KMIA

Flight info

Callsign AAL312
Flight time 2h 41m
Altitude 34000
Route BEROX1K BEROX DCT BENIS DCT OSIDU UL337 BODLO/N0463F360 Y298 KNSLY DCT FORST Y586 MADIZ VIICE2
Aircraft A321/M-SDE3FGHIRWY/LB1

Departure

Time 2026-04-30 20:01
Airport Hato International Airport (TNCC)

Arrival

Time 2026-04-30 22:42
Airport Miami International Airport (KMIA)
Time Latitude Longitude Altitude Speed Heading
2026-04-30 19:43 12.18540 -68.95631 44 ft 0 kts 192°
2026-04-30 19:51 12.18541 -68.95631 43 ft 2 kts 192°
2026-04-30 19:51 12.18566 -68.95626 43 ft 4 kts 192°
2026-04-30 19:51 12.18588 -68.95621 43 ft 4 kts 199°
2026-04-30 19:52 12.18611 -68.95608 42 ft 4 kts 224°
2026-04-30 19:52 12.18625 -68.95586 41 ft 4 kts 260°
2026-04-30 19:52 12.18626 -68.95567 43 ft 0 kts 282°
2026-04-30 19:55 12.18628 -68.95579 43 ft 5 kts 282°
2026-04-30 19:55 12.18640 -68.95636 42 ft 10 kts 282°
2026-04-30 19:55 12.18655 -68.95706 40 ft 11 kts 282°
2026-04-30 19:55 12.18676 -68.95805 43 ft 17 kts 282°
2026-04-30 19:56 12.18701 -68.95927 43 ft 18 kts 282°
2026-04-30 19:56 12.18727 -68.96053 43 ft 18 kts 282°
2026-04-30 19:56 12.18754 -68.96183 43 ft 19 kts 282°
2026-04-30 19:56 12.18782 -68.96317 43 ft 20 kts 282°
2026-04-30 19:57 12.18811 -68.96456 42 ft 20 kts 282°
2026-04-30 19:57 12.18842 -68.96599 41 ft 21 kts 282°
2026-04-30 19:57 12.18873 -68.96748 41 ft 22 kts 282°
2026-04-30 19:57 12.18905 -68.96901 41 ft 22 kts 282°
2026-04-30 19:58 12.18938 -68.97059 40 ft 23 kts 282°
2026-04-30 19:58 12.18971 -68.97220 40 ft 23 kts 282°
2026-04-30 19:58 12.19006 -68.97385 38 ft 24 kts 282°
2026-04-30 19:58 12.19039 -68.97540 40 ft 13 kts 283°
2026-04-30 19:59 12.19080 -68.97585 40 ft 10 kts
2026-04-30 19:59 12.19126 -68.97577 39 ft 0 kts 11°
2026-04-30 20:00 12.19147 -68.97573 39 ft 6 kts 11°
2026-04-30 20:00 12.19197 -68.97554 38 ft 10 kts 44°
2026-04-30 20:00 12.19207 -68.97490 40 ft 10 kts 101°
2026-04-30 20:00 12.19176 -68.97336 40 ft 51 kts 102°
2026-04-30 20:01 12.18849 -68.95772 42 ft 164 kts 102°
2026-04-30 20:01 12.18599 -68.94558 441 ft 175 kts 101°
2026-04-30 20:01 12.18348 -68.93340 1158 ft 176 kts 102°
2026-04-30 20:02 12.17790 -68.90678 1609 ft 213 kts 102°
2026-04-30 20:02 12.17517 -68.89097 1810 ft 239 kts 90°
2026-04-30 20:03 12.19501 -68.86410 3003 ft 262 kts 28°
2026-04-30 20:03 12.21227 -68.85797 3731 ft 265 kts 19°
2026-04-30 20:03 12.23042 -68.85334 4422 ft 273 kts 17°
2026-04-30 20:03 12.24900 -68.84887 5112 ft 276 kts 17°
2026-04-30 20:04 12.26769 -68.84404 5727 ft 279 kts 18°
2026-04-30 20:04 12.28652 -68.83870 6318 ft 285 kts 19°
2026-04-30 20:04 12.30561 -68.83287 6940 ft 287 kts 20°
2026-04-30 20:05 12.34420 -68.82055 8118 ft 294 kts 19°
2026-04-30 20:05 12.36378 -68.81416 8686 ft 297 kts 20°
2026-04-30 20:05 12.40353 -68.80110 9805 ft 303 kts 19°
2026-04-30 20:06 12.42384 -68.79445 10136 ft 315 kts 19°
2026-04-30 20:06 12.44528 -68.78741 10271 ft 332 kts 19°
2026-04-30 20:06 12.46786 -68.78001 10400 ft 348 kts 19°
2026-04-30 20:06 12.49144 -68.77228 10529 ft 363 kts 19°
2026-04-30 20:07 12.51599 -68.76424 10673 ft 377 kts 19°
2026-04-30 20:07 12.54119 -68.75600 11046 ft 383 kts 19°
2026-04-30 20:07 12.59228 -68.73938 12002 ft 388 kts 19°
2026-04-30 20:08 12.61781 -68.73114 12481 ft 391 kts 18°
2026-04-30 20:08 12.64466 -68.72605 12945 ft 396 kts
2026-04-30 20:08 12.67236 -68.72656 13400 ft 401 kts 354°
2026-04-30 20:08 12.69969 -68.73290 13847 ft 405 kts 341°
2026-04-30 20:09 12.72609 -68.74335 14301 ft 409 kts 339°
2026-04-30 20:09 12.75265 -68.75403 14785 ft 411 kts 339°
2026-04-30 20:09 12.80625 -68.77545 15718 ft 416 kts 339°
2026-04-30 20:10 12.86059 -68.79704 16612 ft 421 kts 338°
2026-04-30 20:10 12.88807 -68.80799 17058 ft 424 kts 338°
2026-04-30 20:10 12.91559 -68.81899 17514 ft 426 kts 338°
2026-04-30 20:11 12.97123 -68.84117 18369 ft 431 kts 338°
2026-04-30 20:11 12.99929 -68.85233 18782 ft 433 kts 338°
2026-04-30 20:11 13.02749 -68.86353 19178 ft 436 kts 338°
2026-04-30 20:12 13.08432 -68.88617 19939 ft 440 kts 338°
2026-04-30 20:12 13.11288 -68.89757 20303 ft 441 kts 338°
2026-04-30 20:12 13.14152 -68.90901 20634 ft 443 kts 337°
2026-04-30 20:13 13.17029 -68.92054 20965 ft 445 kts 337°
2026-04-30 20:13 13.19918 -68.93212 21292 ft 446 kts 337°
2026-04-30 20:13 13.22825 -68.94379 21620 ft 449 kts 337°
2026-04-30 20:13 13.25735 -68.95543 21926 ft 451 kts 337°
2026-04-30 20:14 13.28669 -68.96717 22235 ft 453 kts 337°
2026-04-30 20:14 13.31606 -68.97894 22549 ft 454 kts 337°
2026-04-30 20:14 13.34553 -68.99075 22842 ft 456 kts 337°
2026-04-30 20:14 13.37513 -69.00259 23136 ft 457 kts 337°
2026-04-30 20:15 13.40480 -69.01443 23423 ft 459 kts 337°
2026-04-30 20:15 13.43462 -69.02634 23698 ft 460 kts 337°
2026-04-30 20:15 13.46451 -69.03831 23975 ft 462 kts 336°
2026-04-30 20:15 13.49448 -69.05035 24247 ft 463 kts 336°
2026-04-30 20:16 13.52419 -69.06227 24505 ft 465 kts 336°
2026-04-30 20:16 13.55474 -69.07451 24767 ft 466 kts 336°
2026-04-30 20:16 13.58460 -69.08646 24998 ft 468 kts 336°
2026-04-30 20:16 13.61506 -69.09866 25249 ft 470 kts 336°
2026-04-30 20:17 13.64556 -69.11089 25496 ft 471 kts 336°
2026-04-30 20:17 13.67615 -69.12319 25727 ft 473 kts 336°
2026-04-30 20:17 13.70685 -69.13552 25961 ft 474 kts 336°
2026-04-30 20:17 13.73765 -69.14786 26202 ft 476 kts 336°
2026-04-30 20:18 13.76854 -69.16027 26414 ft 477 kts 336°
2026-04-30 20:18 13.79953 -69.17273 26660 ft 479 kts 336°
2026-04-30 20:18 13.83064 -69.18520 26889 ft 481 kts 336°
2026-04-30 20:18 13.86181 -69.19770 27127 ft 483 kts 336°
2026-04-30 20:19 13.89313 -69.21032 27359 ft 484 kts 336°
2026-04-30 20:19 13.91395 -69.21873 27508 ft 485 kts 336°
2026-04-30 20:19 13.95602 -69.23565 27864 ft 485 kts 336°
2026-04-30 20:19 13.98746 -69.24825 28193 ft 484 kts 336°
2026-04-30 20:20 14.01882 -69.26086 28498 ft 484 kts 335°
2026-04-30 20:20 14.05018 -69.27348 28844 ft 482 kts 335°
2026-04-30 20:20 14.08134 -69.28603 29193 ft 480 kts 335°
2026-04-30 20:20 14.11241 -69.29858 29518 ft 479 kts 335°
2026-04-30 20:21 14.14339 -69.31110 29849 ft 478 kts 335°
2026-04-30 20:21 14.17436 -69.32363 30166 ft 477 kts 335°
2026-04-30 20:21 14.20513 -69.33604 30474 ft 475 kts 335°
2026-04-30 20:21 14.23555 -69.34832 30754 ft 475 kts 334°
2026-04-30 20:22 14.26630 -69.36070 31057 ft 474 kts 334°
2026-04-30 20:22 14.29698 -69.37309 31347 ft 473 kts 334°
2026-04-30 20:22 14.32759 -69.38547 31637 ft 472 kts 334°
2026-04-30 20:22 14.35815 -69.39782 31927 ft 471 kts 334°
2026-04-30 20:23 14.38903 -69.41030 32220 ft 470 kts 334°
2026-04-30 20:23 14.41910 -69.42247 32490 ft 470 kts 334°
2026-04-30 20:23 14.44945 -69.43477 32758 ft 469 kts 334°
2026-04-30 20:23 14.47982 -69.44705 33029 ft 468 kts 334°
2026-04-30 20:24 14.51013 -69.45932 33310 ft 467 kts 334°
2026-04-30 20:24 14.54038 -69.47156 33572 ft 467 kts 334°
2026-04-30 20:24 14.57066 -69.48381 33803 ft 466 kts 334°
2026-04-30 20:25 14.66112 -69.52049 33876 ft 466 kts 333°
2026-04-30 20:26 14.74349 -69.55382 33879 ft 466 kts 333°
2026-04-30 20:26 14.83386 -69.59040 33877 ft 465 kts 333°
2026-04-30 20:27 14.95427 -69.63942 33884 ft 465 kts 333°
2026-04-30 20:28 15.06474 -69.68425 33896 ft 466 kts 333°
2026-04-30 20:30 15.21540 -69.74560 33889 ft 465 kts 332°
2026-04-30 20:31 15.39572 -69.81923 33899 ft 464 kts 332°
2026-04-30 20:32 15.54634 -69.88067 33904 ft 466 kts 332°
2026-04-30 20:33 15.63679 -69.91773 33902 ft 467 kts 331°
2026-04-30 20:34 15.72706 -69.95470 33910 ft 467 kts 332°
2026-04-30 20:35 15.81773 -69.99172 33912 ft 467 kts 331°
2026-04-30 20:35 15.90827 -70.02890 33918 ft 466 kts 331°
2026-04-30 20:36 15.96860 -70.05374 33916 ft 466 kts 331°
2026-04-30 20:37 16.06023 -70.08846 33923 ft 470 kts 335°
2026-04-30 20:37 16.12284 -70.10824 33925 ft 471 kts 336°
2026-04-30 20:38 16.18544 -70.12806 33925 ft 470 kts 335°
2026-04-30 20:38 16.24772 -70.14864 33926 ft 469 kts 335°
2026-04-30 20:39 16.34049 -70.17987 33926 ft 469 kts 335°
2026-04-30 20:40 16.43369 -70.21097 33926 ft 469 kts 335°
2026-04-30 20:40 16.49582 -70.23168 33927 ft 469 kts 335°
2026-04-30 20:41 16.58891 -70.26277 33923 ft 468 kts 335°
2026-04-30 20:41 16.65074 -70.28342 33924 ft 465 kts 335°
2026-04-30 20:42 16.71250 -70.30407 33913 ft 467 kts 334°
2026-04-30 20:43 16.80477 -70.33484 34141 ft 466 kts 335°
2026-04-30 20:43 16.83564 -70.34520 34412 ft 466 kts 334°
2026-04-30 20:43 16.86642 -70.35555 34672 ft 464 kts 334°
2026-04-30 20:44 16.92774 -70.37623 35192 ft 462 kts 335°
2026-04-30 20:44 16.95841 -70.38654 35425 ft 462 kts 334°
2026-04-30 20:44 17.01950 -70.40705 35852 ft 461 kts 334°
2026-04-30 20:45 17.08054 -70.42758 35914 ft 460 kts 334°
2026-04-30 20:45 17.14142 -70.44810 35915 ft 460 kts 334°
2026-04-30 20:46 17.26271 -70.48895 35915 ft 459 kts 334°
2026-04-30 20:47 17.35384 -70.51966 35922 ft 459 kts 334°
2026-04-30 20:48 17.44515 -70.55034 35931 ft 459 kts 334°
2026-04-30 20:48 17.50595 -70.57078 35930 ft 459 kts 334°
2026-04-30 20:49 17.56671 -70.59130 35936 ft 459 kts 334°
2026-04-30 20:50 17.65758 -70.62214 35932 ft 457 kts 334°
2026-04-30 20:50 17.71817 -70.64268 35933 ft 458 kts 334°
2026-04-30 20:51 17.77881 -70.66319 35931 ft 458 kts 334°
2026-04-30 20:51 17.86979 -70.69406 35935 ft 458 kts 334°
2026-04-30 20:52 17.93044 -70.71461 35936 ft 458 kts 334°
2026-04-30 20:53 18.02109 -70.74539 35936 ft 458 kts 334°
2026-04-30 20:53 18.08179 -70.76601 35944 ft 459 kts 334°
2026-04-30 20:54 18.17277 -70.79703 35950 ft 458 kts 334°
2026-04-30 20:55 18.26362 -70.82799 35945 ft 457 kts 334°
2026-04-30 20:55 18.32418 -70.84862 35944 ft 458 kts 334°
2026-04-30 20:56 18.41518 -70.87966 35941 ft 458 kts 334°
2026-04-30 20:57 18.50590 -70.91076 35937 ft 457 kts 334°
2026-04-30 20:57 18.56637 -70.93146 35938 ft 457 kts 334°
2026-04-30 20:58 18.65249 -70.96997 35934 ft 437 kts 316°
2026-04-30 20:58 18.69839 -71.01090 35936 ft 432 kts 311°
2026-04-30 20:59 18.76619 -71.07292 35932 ft 432 kts 312°
2026-04-30 21:00 18.85731 -71.15611 35939 ft 434 kts 312°
2026-04-30 21:01 18.92564 -71.21881 35936 ft 434 kts 312°
2026-04-30 21:02 18.99414 -71.28153 35940 ft 435 kts 312°
2026-04-30 21:02 19.03976 -71.32341 35936 ft 434 kts 312°
2026-04-30 21:03 19.08522 -71.36532 35939 ft 434 kts 312°
2026-04-30 21:03 19.13058 -71.40705 35935 ft 436 kts 312°
2026-04-30 21:04 19.17643 -71.44914 35939 ft 436 kts 312°
2026-04-30 21:04 19.24509 -71.51242 35936 ft 436 kts 312°
2026-04-30 21:05 19.29080 -71.55459 35938 ft 436 kts 312°
2026-04-30 21:05 19.33653 -71.59681 35943 ft 437 kts 312°
2026-04-30 21:06 19.38239 -71.63919 35943 ft 438 kts 312°
2026-04-30 21:06 19.42776 -71.68215 35941 ft 434 kts 307°
2026-04-30 21:07 19.46526 -71.73141 35940 ft 429 kts 302°
2026-04-30 21:07 19.50214 -71.78122 35936 ft 429 kts 302°
2026-04-30 21:08 19.53874 -71.83059 35940 ft 429 kts 303°
2026-04-30 21:08 19.57566 -71.88053 35935 ft 431 kts 304°
2026-04-30 21:09 19.61268 -71.93075 35938 ft 432 kts 304°
2026-04-30 21:09 19.64976 -71.98110 35938 ft 433 kts 303°
2026-04-30 21:10 19.68566 -72.03238 35945 ft 433 kts 302°
2026-04-30 21:10 19.72074 -72.08435 35951 ft 433 kts 302°
2026-04-30 21:11 19.75610 -72.13630 35954 ft 434 kts 302°
2026-04-30 21:11 19.79164 -72.18798 35957 ft 434 kts 302°
2026-04-30 21:12 19.82733 -72.23970 35966 ft 434 kts 302°
2026-04-30 21:12 19.86297 -72.29156 35967 ft 435 kts 302°
2026-04-30 21:13 19.89853 -72.34350 35961 ft 434 kts 302°
2026-04-30 21:13 19.93395 -72.39543 35955 ft 434 kts 302°
2026-04-30 21:14 19.96927 -72.44703 35956 ft 434 kts 302°
2026-04-30 21:14 20.00483 -72.49891 35956 ft 434 kts 302°
2026-04-30 21:15 20.04034 -72.55087 35955 ft 434 kts 302°
2026-04-30 21:15 20.07584 -72.60287 35955 ft 435 kts 302°
2026-04-30 21:16 20.11240 -72.65411 35954 ft 436 kts 308°
2026-04-30 21:16 20.15268 -72.70244 35960 ft 437 kts 308°
2026-04-30 21:17 20.19301 -72.75098 35963 ft 438 kts 308°
2026-04-30 21:17 20.23344 -72.79962 35969 ft 438 kts 308°
2026-04-30 21:18 20.27384 -72.84817 35971 ft 438 kts 308°
2026-04-30 21:18 20.31418 -72.89678 35966 ft 437 kts 308°
2026-04-30 21:19 20.34767 -72.93722 35965 ft 437 kts 308°
2026-04-30 21:19 20.38793 -72.98576 35973 ft 437 kts 308°
2026-04-30 21:20 20.43485 -73.04227 35976 ft 438 kts 308°
2026-04-30 21:20 20.46873 -73.08290 35976 ft 438 kts 308°
2026-04-30 21:21 20.50914 -73.13143 35979 ft 437 kts 308°
2026-04-30 21:22 20.56976 -73.20416 35974 ft 437 kts 308°
2026-04-30 21:23 20.65018 -73.30114 35976 ft 438 kts 308°
2026-04-30 21:23 20.71080 -73.37417 35982 ft 437 kts 308°
2026-04-30 21:24 20.75107 -73.42277 35976 ft 437 kts 308°
2026-04-30 21:24 20.79128 -73.47133 35972 ft 437 kts 308°
2026-04-30 21:25 20.85161 -73.54441 35977 ft 437 kts 308°
2026-04-30 21:26 20.91167 -73.61722 35980 ft 437 kts 308°
2026-04-30 21:27 20.97214 -73.69044 35984 ft 438 kts 309°
2026-04-30 21:27 21.01287 -73.73894 35978 ft 439 kts 309°
2026-04-30 21:28 21.07440 -73.81138 35985 ft 438 kts 309°
2026-04-30 21:29 21.13561 -73.88413 35983 ft 438 kts 309°
2026-04-30 21:30 21.23747 -74.00535 35980 ft 437 kts 310°
2026-04-30 21:31 21.33881 -74.12627 35985 ft 437 kts 310°
2026-04-30 21:32 21.39967 -74.19909 35978 ft 437 kts 310°
2026-04-30 21:32 21.44024 -74.24754 35974 ft 437 kts 310°
2026-04-30 21:33 21.50110 -74.32064 35975 ft 438 kts 310°
2026-04-30 21:34 21.54180 -74.36945 35981 ft 438 kts 310°
2026-04-30 21:34 21.60293 -74.44260 35980 ft 439 kts 310°
2026-04-30 21:35 21.64360 -74.49152 35986 ft 439 kts 310°
2026-04-30 21:35 21.68422 -74.54050 35982 ft 439 kts 310°
2026-04-30 21:36 21.72491 -74.58943 35975 ft 439 kts 310°
2026-04-30 21:37 21.80612 -74.68747 35963 ft 439 kts 310°
2026-04-30 21:37 21.84648 -74.73613 35969 ft 438 kts 310°
2026-04-30 21:38 21.88703 -74.78517 35974 ft 439 kts 310°
2026-04-30 21:38 21.92754 -74.83425 35974 ft 438 kts 310°
2026-04-30 21:39 21.96808 -74.88325 35976 ft 438 kts 310°
2026-04-30 21:39 22.00863 -74.93230 35975 ft 439 kts 310°
2026-04-30 21:40 22.04916 -74.98152 35972 ft 439 kts 311°
2026-04-30 21:40 22.08957 -75.03076 35970 ft 438 kts 311°
2026-04-30 21:41 22.12986 -75.08013 35969 ft 439 kts 310°
2026-04-30 21:41 22.16948 -75.13033 35970 ft 439 kts 310°
2026-04-30 21:42 22.20869 -75.18087 35969 ft 439 kts 310°
2026-04-30 21:42 22.24807 -75.23130 35967 ft 440 kts 310°
2026-04-30 21:43 22.28755 -75.28172 35960 ft 439 kts 311°
2026-04-30 21:43 22.32709 -75.33206 35958 ft 439 kts 310°
2026-04-30 21:44 22.36658 -75.38243 35957 ft 439 kts 310°
2026-04-30 21:44 22.40573 -75.43250 35957 ft 440 kts 310°
2026-04-30 21:45 22.44521 -75.48306 35959 ft 439 kts 310°
2026-04-30 21:45 22.48457 -75.53359 35957 ft 440 kts 310°
2026-04-30 21:46 22.52399 -75.58418 35961 ft 440 kts 310°
2026-04-30 21:46 22.56346 -75.63483 35966 ft 441 kts 310°
2026-04-30 21:47 22.60297 -75.68559 35970 ft 440 kts 310°
2026-04-30 21:47 22.64243 -75.73646 35969 ft 441 kts 310°
2026-04-30 21:48 22.68191 -75.78732 35975 ft 441 kts 310°
2026-04-30 21:48 22.72140 -75.83818 35979 ft 441 kts 310°
2026-04-30 21:49 22.76086 -75.88901 35976 ft 441 kts 310°
2026-04-30 21:49 22.79998 -75.93953 35975 ft 440 kts 310°
2026-04-30 21:50 22.83928 -75.99038 35974 ft 440 kts 310°
2026-04-30 21:50 22.87863 -76.04122 35972 ft 440 kts 311°
2026-04-30 21:51 22.91789 -76.09220 35967 ft 440 kts 311°
2026-04-30 21:51 22.95719 -76.14318 35969 ft 440 kts 311°
2026-04-30 21:52 22.99651 -76.19419 35971 ft 441 kts 311°
2026-04-30 21:52 23.03587 -76.24530 35973 ft 441 kts 311°
2026-04-30 21:53 23.07517 -76.29636 35976 ft 440 kts 311°
2026-04-30 21:53 23.11438 -76.34744 35975 ft 440 kts 311°
2026-04-30 21:54 23.15346 -76.39848 35973 ft 440 kts 311°
2026-04-30 21:54 23.19233 -76.44919 35966 ft 439 kts 311°
2026-04-30 21:55 23.23144 -76.50019 35958 ft 439 kts 311°
2026-04-30 21:55 23.27054 -76.55125 35956 ft 439 kts 311°
2026-04-30 21:56 23.30952 -76.60222 35954 ft 438 kts 311°
2026-04-30 21:56 23.34848 -76.65318 35956 ft 438 kts 311°
2026-04-30 21:57 23.38737 -76.70416 35946 ft 438 kts 311°
2026-04-30 21:57 23.42624 -76.75534 35952 ft 439 kts 311°
2026-04-30 21:58 23.46517 -76.80658 35952 ft 438 kts 311°
2026-04-30 21:58 23.50403 -76.85761 35957 ft 438 kts 311°
2026-04-30 21:59 23.54298 -76.90882 35959 ft 439 kts 311°
2026-04-30 22:00 23.60146 -76.98575 35964 ft 439 kts 311°
2026-04-30 22:00 23.65958 -77.06225 35963 ft 438 kts 311°
2026-04-30 22:01 23.69839 -77.11349 35961 ft 438 kts 311°
2026-04-30 22:01 23.73722 -77.16478 35958 ft 438 kts 311°
2026-04-30 22:02 23.77601 -77.21600 35961 ft 438 kts 311°
2026-04-30 22:02 23.81481 -77.26727 35962 ft 437 kts 311°
2026-04-30 22:03 23.85343 -77.31852 35959 ft 437 kts 311°
2026-04-30 22:03 23.89214 -77.36987 35961 ft 437 kts 311°
2026-04-30 22:04 23.93078 -77.42107 35963 ft 436 kts 311°
2026-04-30 22:05 23.98831 -77.49755 35965 ft 436 kts 311°
2026-04-30 22:05 24.02682 -77.54872 35968 ft 436 kts 311°
2026-04-30 22:06 24.06527 -77.60001 35968 ft 435 kts 311°
2026-04-30 22:06 24.12284 -77.67689 35975 ft 435 kts 311°
2026-04-30 22:07 24.16117 -77.72812 35976 ft 435 kts 311°
2026-04-30 22:07 24.19951 -77.77941 35977 ft 435 kts 311°
2026-04-30 22:08 24.23781 -77.83068 35976 ft 435 kts 311°
2026-04-30 22:08 24.27548 -77.88262 35972 ft 437 kts 307°
2026-04-30 22:09 24.30955 -77.93782 35971 ft 437 kts 306°
2026-04-30 22:09 24.34346 -77.99305 35975 ft 436 kts 306°
2026-04-30 22:10 24.37733 -78.04823 35972 ft 436 kts 306°
2026-04-30 22:10 24.41110 -78.10346 35972 ft 436 kts 306°
2026-04-30 22:11 24.45618 -78.17677 35969 ft 436 kts 306°
2026-04-30 22:12 24.49556 -78.24109 35973 ft 436 kts 306°
2026-04-30 22:12 24.52930 -78.29644 35976 ft 436 kts 306°
2026-04-30 22:13 24.56301 -78.35173 35975 ft 436 kts 306°
2026-04-30 22:13 24.59101 -78.39757 35978 ft 435 kts 306°
2026-04-30 22:14 24.62478 -78.45277 35979 ft 435 kts 306°
2026-04-30 22:14 24.65834 -78.50794 35976 ft 433 kts 306°
2026-04-30 22:15 24.69172 -78.56307 35974 ft 433 kts 306°
2026-04-30 22:15 24.72510 -78.61817 35977 ft 432 kts 306°
2026-04-30 22:16 24.75849 -78.67312 35978 ft 432 kts 306°
2026-04-30 22:17 24.82507 -78.78294 35975 ft 431 kts 305°
2026-04-30 22:17 24.87463 -78.86506 35970 ft 431 kts 305°
2026-04-30 22:18 24.89127 -78.89265 35528 ft 433 kts 305°
2026-04-30 22:18 24.92456 -78.94791 34232 ft 433 kts 305°
2026-04-30 22:19 24.95812 -79.00364 32652 ft 439 kts 305°
2026-04-30 22:19 24.97505 -79.03174 31858 ft 441 kts 305°
2026-04-30 22:19 25.00924 -79.08852 30086 ft 448 kts 304°
2026-04-30 22:20 25.02650 -79.11720 29162 ft 450 kts 304°
2026-04-30 22:20 25.06140 -79.17526 27027 ft 458 kts 303°
2026-04-30 22:20 25.07909 -79.20478 25869 ft 464 kts 303°
2026-04-30 22:21 25.09681 -79.23442 25226 ft 458 kts 303°
2026-04-30 22:21 25.11425 -79.26361 24460 ft 455 kts 303°
2026-04-30 22:21 25.13163 -79.29268 23722 ft 451 kts 302°
2026-04-30 22:21 25.14882 -79.32139 23014 ft 445 kts 302°
2026-04-30 22:22 25.16558 -79.34941 22841 ft 428 kts 302°
2026-04-30 22:22 25.18163 -79.37630 22707 ft 411 kts 302°
2026-04-30 22:22 25.19708 -79.40219 22581 ft 397 kts 302°
2026-04-30 22:22 25.21202 -79.42721 22358 ft 387 kts 302°
2026-04-30 22:23 25.22676 -79.45188 21946 ft 382 kts 302°
2026-04-30 22:23 25.24132 -79.47629 21480 ft 379 kts 302°
2026-04-30 22:23 25.25577 -79.50051 21007 ft 376 kts 302°
2026-04-30 22:23 25.27006 -79.52449 20428 ft 372 kts 302°
2026-04-30 22:24 25.28421 -79.54829 19857 ft 368 kts 302°
2026-04-30 22:24 25.29813 -79.57170 19266 ft 363 kts 302°
2026-04-30 22:24 25.31188 -79.59485 18663 ft 358 kts 302°
2026-04-30 22:24 25.32546 -79.61770 18176 ft 353 kts 302°
2026-04-30 22:25 25.33891 -79.64028 17771 ft 349 kts 302°
2026-04-30 22:25 25.35201 -79.66230 17318 ft 346 kts 302°
2026-04-30 22:25 25.36518 -79.68449 16849 ft 344 kts 302°
2026-04-30 22:25 25.37823 -79.70657 16389 ft 342 kts 302°
2026-04-30 22:26 25.40459 -79.75004 15659 ft 339 kts 304°
2026-04-30 22:26 25.41825 -79.77125 15375 ft 338 kts 305°
2026-04-30 22:26 25.43198 -79.79227 15083 ft 336 kts 305°
2026-04-30 22:27 25.44565 -79.81322 14793 ft 335 kts 305°
2026-04-30 22:27 25.45922 -79.83418 14494 ft 334 kts 305°
2026-04-30 22:27 25.48603 -79.87584 13889 ft 331 kts 304°
2026-04-30 22:28 25.51279 -79.91763 12705 ft 333 kts 304°
2026-04-30 22:28 25.52606 -79.93838 12289 ft 326 kts 304°
2026-04-30 22:29 25.56406 -79.99776 11299 ft 294 kts 304°
2026-04-30 22:29 25.57571 -80.01600 11009 ft 286 kts 304°
2026-04-30 22:30 25.62134 -80.08757 9958 ft 283 kts 304°
2026-04-30 22:31 25.65502 -80.14126 8965 ft 282 kts 298°
2026-04-30 22:32 25.68008 -80.20018 8201 ft 280 kts 295°
2026-04-30 22:32 25.69670 -80.23906 7656 ft 277 kts 295°
2026-04-30 22:33 25.71157 -80.29874 6820 ft 260 kts 266°
2026-04-30 22:33 25.70971 -80.33671 6321 ft 237 kts 268°
2026-04-30 22:34 25.70721 -80.39082 5402 ft 231 kts 267°
2026-04-30 22:35 25.70579 -80.42532 4367 ft 221 kts 268°
2026-04-30 22:36 25.70408 -80.49345 3004 ft 221 kts 268°
2026-04-30 22:36 25.70456 -80.51045 2999 ft 222 kts 282°
2026-04-30 22:37 25.74098 -80.53574 3011 ft 224 kts 352°
2026-04-30 22:37 25.75647 -80.53743 3004 ft 224 kts 359°
2026-04-30 22:37 25.77821 -80.51850 3018 ft 205 kts 84°
2026-04-30 22:38 25.77875 -80.48774 2997 ft 196 kts 89°
2026-04-30 22:38 25.78005 -80.45745 2592 ft 195 kts 89°
2026-04-30 22:39 25.78070 -80.44243 2340 ft 193 kts 89°
2026-04-30 22:39 25.78245 -80.40128 1653 ft 158 kts 90°
2026-04-30 22:40 25.78391 -80.36666 1037 ft 145 kts 90°
2026-04-30 22:41 25.78532 -80.33353 473 ft 143 kts 90°
2026-04-30 22:41 25.78627 -80.31186 65 ft 139 kts 90°
2026-04-30 22:42 25.78816 -80.29114 16 ft 18 kts 75°
2026-04-30 22:43 25.78862 -80.28869 15 ft 15 kts 76°
2026-04-30 22:43 25.78935 -80.28872 15 ft 11 kts 352°
2026-04-30 22:44 25.79110 -80.28884 14 ft 14 kts 356°
2026-04-30 22:45 25.79518 -80.28806 15 ft 17 kts 357°
2026-04-30 22:45 25.79645 -80.28681 15 ft 15 kts 85°
2026-04-30 22:46 25.79669 -80.28445 15 ft 15 kts 86°
2026-04-30 22:47 25.79737 -80.28307 15 ft 0 kts 359°